Location: Eitze
(52.9840°N, 9.6894°E)
Time: 06:48:46
(UTC+00:00)

Cosmos 1833 Rocket - Pass Details

Date: 19 May 2025
Orbit: 831 x 838 km, 71.0° (Epoch: 22 June)

Event Time Altitude Azimuth Distance (km) Brightness Sun altitude
Rises 20:23:07 0° 196° (SSW) 3,378 5.5 -7.9°
Reaches altitude 10° 20:25:34 10° 192° (SSW) 2,448 4.8 -8.1°
Maximum altitude 20:31:04 59° 115° (ESE) 963 2.8 -8.6°
Drops below altitude 10° 20:36:37 10° 37° (NE) 2,464 5.3 -9.2°
Sets 20:39:06 0° 34° (NNE) 3,403 6.1 -9.4°
